Location: Caltech
(34.1382°N, 118.1253°W)
Time: 05:54:51
(UTC-07:00)

Tiros 1 despin weight - All Passes

Search period start: 30 October 2014 00:00
Search period end: 08 November 2014 23:00
Orbit: 600 x 652 km, 48.2° (Epoch: 29 October)

Date Brightness Start Highest point End Pass type
(mag) Time Alt. Az. Time Alt. Az. Time Alt. Az.
30 Oct - 04:42:01 10° SSW 04:46:06 29° SE 04:50:10 10° ENE visible
30 Oct - 06:23:09 10° WSW 06:27:42 47° NNW 06:32:13 10° NE visible
30 Oct - 08:07:15 10° NW 08:10:19 17° NNW 08:13:22 10° NNE daylight
30 Oct - 09:50:56 10° NNW 09:53:33 15° N 09:56:09 10° NE daylight
30 Oct - 11:32:16 10° NW 11:36:24 32° NNE 11:40:28 10° E daylight
30 Oct - 13:13:53 10° WNW 13:18:14 46° SW 13:22:31 10° SSE daylight
31 Oct - 05:00:23 10° SW 05:05:04 65° SE 05:09:43 10° ENE visible
31 Oct - 06:43:02 10° W 06:47:05 28° NNW 06:51:07 10° NE visible
31 Oct - 08:27:31 10° NW 08:30:03 14° N 08:32:34 10° NNE daylight
31 Oct - 10:10:00 10° NNW 10:13:15 18° NNE 10:16:27 10° ENE daylight
31 Oct - 11:51:11 10° NW 11:55:43 59° NE 12:00:09 10° ESE daylight
31 Oct - 13:33:45 10° W 13:37:07 21° SW 13:40:27 10° S daylight
01 Nov - 03:39:12 10° S 03:42:45 21° SE 03:46:17 10° E visible
01 Nov - 05:19:30 10° WSW 05:24:11 63° NW 05:28:50 10° NE visible
01 Nov - 07:03:14 10° WNW 07:06:38 19° NNW 07:10:00 10° NNE daylight
01 Nov - 08:47:19 10° NNW 08:49:49 14° N 08:52:18 10° NE daylight
01 Nov - 10:28:53 10° NW 10:32:48 27° NNE 10:36:40 10° E daylight
01 Nov - 12:10:18 10° WNW 12:14:50 67° SW 12:19:17 10° SE daylight
02 Nov - 02:57:06 10° SSW 03:01:37 46° SE 03:06:08 10° ENE visible
02 Nov - 04:39:09 10° W 04:43:28 34° NNW 04:47:45 10° NE visible
02 Nov - 06:23:32 10° NW 06:26:18 15° N 06:29:02 10° NNE daylight
02 Nov - 08:06:33 10° NNW 08:09:32 17° NNE 08:12:29 10° NE daylight
02 Nov - 09:47:45 10° NW 09:52:11 45° NNE 09:56:31 10° ESE daylight
02 Nov - 11:29:49 10° WNW 11:33:46 29° SW 11:37:40 10° SSE daylight
03 Nov - 01:36:44 10° SSE 01:39:23 15° SE 01:42:02 10° E night (unlit)
03 Nov - 03:15:54 10° SW 03:20:38 84° NW 03:25:22 10° NE visible
03 Nov - 04:59:12 10° WNW 05:02:55 22° NNW 05:06:36 10° NNE visible
03 Nov - 06:43:33 10° NNW 06:46:02 14° N 06:48:30 10° NNE daylight
03 Nov - 08:25:28 10° NNW 08:29:08 23° NNE 08:32:45 10° ENE daylight
03 Nov - 10:06:45 10° NW 10:11:22 89° NE 10:15:53 10° SE daylight
03 Nov - 11:50:30 10° W 11:52:32 13° SW 11:54:34 10° SSW daylight
04 Nov - 01:53:57 10° SSW 01:58:10 33° SE 02:02:23 10° ENE night (unlit)
04 Nov - 03:35:19 10° WSW 03:39:50 44° NNW 03:44:20 10° NE visible
04 Nov - 05:19:29 10° NW 05:22:31 17° NNW 05:25:32 10° NNE visible
04 Nov - 07:02:59 10° NNW 07:05:45 15° N 07:08:30 10° NE daylight
04 Nov - 08:44:18 10° NW 08:48:34 35° NNE 08:52:46 10° E daylight
04 Nov - 10:26:01 10° WNW 10:30:21 42° SW 10:34:36 10° SSE daylight
05 Nov - 02:12:24 10° SW 02:17:06 72° SE 02:21:49 10° NE visible
05 Nov - 03:55:11 10° W 03:59:11 27° NNW 04:03:11 10° NE visible
05 Nov - 05:39:38 10° NW 05:42:12 14° N 05:44:45 10° NNE visible
05 Nov - 07:21:59 10° NNW 07:25:23 20° NNE 07:28:45 10° ENE daylight
05 Nov - 09:03:12 10° NW 09:07:49 66° NE 09:12:20 10° ESE daylight
05 Nov - 10:45:58 10° W 10:49:09 19° SW 10:52:19 10° S daylight
06 Nov - 00:50:58 10° S 00:54:42 24° SE 00:58:28 10° E night (unlit)
06 Nov - 02:31:32 10° WSW 02:36:11 57° NW 02:40:51 10° NE visible
06 Nov - 04:15:22 10° WNW 04:18:42 19° NNW 04:22:02 10° NNE visible
06 Nov - 05:59:18 10° NNW 06:01:55 15° N 06:04:31 10° NE daylight
06 Nov - 07:40:49 10° NW 07:44:53 29° NNE 07:48:52 10° E daylight
06 Nov - 09:22:18 10° WNW 09:26:52 60° SW 09:31:19 10° SE daylight
07 Nov - 01:08:59 10° SSW 01:13:33 51° SE 01:18:08 10° ENE night (unlit)
07 Nov - 02:51:12 10° W 02:55:27 32° NNW 02:59:43 10° NE visible
07 Nov - 04:35:36 10° NW 04:38:20 15° N 04:41:04 10° NNE visible
07 Nov - 06:18:26 10° NNW 06:21:35 17° NNE 06:24:41 10° NE daylight
07 Nov - 07:59:39 10° NW 08:04:11 49° NNE 08:08:37 10° ESE daylight
07 Nov - 09:41:51 10° WNW 09:45:43 27° SW 09:49:31 10° S daylight
07 Nov - 23:48:16 10° SSE 23:51:14 17° SE 23:54:13 10° E night (unlit)
08 Nov - 01:27:49 10° WSW 01:32:33 77° NW 01:37:17 10° NE night (unlit)
08 Nov - 03:11:15 10° WNW 03:14:53 21° NNW 03:18:31 10° NNE visible
08 Nov - 04:55:29 10° NNW 04:58:02 14° N 05:00:34 10° NE visible
08 Nov - 06:37:18 10° NNW 06:41:07 24° NNE 06:44:52 10° ENE daylight
08 Nov - 08:18:38 10° NW 08:23:17 84° SW 08:27:51 10° SE daylight
08 Nov - 10:02:51 10° WSW 10:04:25 12° SW 10:05:58 10° SSW daylight
